www.pogodaiklimat.ru
ПОГОДА в Хейгерстауне
Время
и дата
14:53 19.05
15:01 19.05
15:27 19.05
15:51 19.05
15:53 19.05
16:53 19.05
17:53 19.05
18:53 19.05
19:53 19.05
20:53 19.05
21:53 19.05
22:53 19.05
23:53 19.05
00:53 20.05
01:53 20.05
02:53 20.05
03:53 20.05
04:48 20.05
04:53 20.05
05:01 20.05
05:40 20.05
05:53 20.05
06:29 20.05
06:49 20.05
06:53 20.05
07:28 20.05
07:39 20.05
07:48 20.05
07:53 20.05
07:57 20.05
08:20 20.05
08:53 20.05
09:53 20.05
10:53 20.05
11:53 20.05
12:53 20.05
13:53 20.05
14:53 20.05
15:53 20.05
16:53 20.05
17:53 20.05
18:53 20.05
19:53 20.05
20:53 20.05
21:53 20.05
22:53 20.05
23:53 20.05
00:53 21.05
Ветер
(напр.,м/с)
Видим. Явления Облачность Т
(С)
Тd
(С)
f
(%)
Тe
(С)
Тes
(С)
Комфортность P
(гПа)
Po
(гПа)
Тmin
(С)
Tmax
(С)
R
(мм)
R24
(мм)
S
(см)
штиль 0 16 км 10/10 840 м +21.7 +15.6 68 +25 +25 комфорт 1016.4 990.3
нст 2 16 км 8/8 780 м +21.7 +15.0 66 +25 +28 комфорт 989.9
ЮЗ 2 16 км 10/10 840 м +22.8 +16.1 66 +27 +27 душно 989.9
ЮЗ 2 16 км 5/5 840 м +23.0 +16.0 65 +27 +34 душно 989.9
ЮЗ 2 16 км 2/2 840 м +22.2 +15.0 64 +26 +36 душно 1016.2 989.9
З 2 16 км 5/5 930 м +23.3 +15.6 62 +28 +32 душно 1015.8 989.6
З 2 16 км ясно +22.8 +15.6 64 +27 +31 душно 1015.6 989.3
З 2 16 км ясно +22.2 +15.6 66 +26 +28 душно 1015.8 989.6 +20.6 +23.9
ЮЗ 2 8 км мгла ясно +21.7 +15.6 68 +25 +25 комфорт 1016.1 989.9
ЮЗ 2 16 км ясно +20.0 +15.0 73 +23 +23 комфорт 1016.7 990.6
ЮЗ 2 16 км ясно +19.4 +15.0 76 +22 +22 комфорт 1017.1 990.9
В 2 16 км ясно +17.2 +15.0 87 +18 +18 1017.4 990.9
ЮВ 2 16 км ясно +16.7 +15.0 90 +17 +17 1017.2 990.9
Ю 2 16 км ясно +16.1 +14.4 90 +16 +16 1017.0 990.6 +15.6 +22.2
Ю 2 16 км ясно +16.1 +14.4 90 +16 +16 1016.7 990.6
ЮВ 3 11 км ясно +15.0 +13.9 93 +14 +14 1016.4 989.9
ЮВ 3 10 км дымка ясно +14.4 +13.9 97 +13 +13 1016.5 990.3
В 2 3 км дымка ясно +14.0 +13.0 94 +13 +13 990.3
В 3 1 км дымка ?/? +13.9 +12.8 93 +13 +13 1016.7 990.3
В 2 <100 м туман ?/? +13.3 +12.8 97 +12 +12 990.6
штиль 0 <100 м туман ?/? +13.9 +13.9 100 +13 +13 991.6
штиль 0 400 м туман ?/? +14.4 +14.4 100 +14 +14 1018.0 991.6
СЗ 2 <100 м туман ?/? +14.4 +14.4 100 +14 +14 992.3
СЗ 2 400 м туман ?/? +15.0 +14.0 94 +15 +15 992.3
штиль 0 400 м туман ?/? +15.0 +14.4 96 +15 +15 1018.6 992.3 +13.3 +17.2
ЮВ 2 800 м туман 10/10 60 м +15.6 +15.0 96 +15 +15 992.3
ЮВ 2 400 м туман 10/10 60 м +15.6 +15.6 100 +15 +15 992.6
штиль 0 1 км дымка 10/10 60 м +16.0 +16.0 100 +16 +16 992.6
штиль 0 2 км дымка 10/10 60 м +15.6 +15.6 100 +15 +15 1018.8 992.6
штиль 0 5 км дымка 10/10 60 м +16.7 +16.1 96 +17 +17 992.6
штиль 0 10 км дымка 5/5 90 м +17.8 +16.1 90 +18 +22 992.3
СЗ 2 11 км ясно +19.4 +17.2 87 +22 +29 комфорт 1018.6 992.3
штиль 0 16 км ясно +21.7 +16.7 73 +26 +41 душно 1018.6 992.6
нст 2 16 км ясно +23.9 +15.6 60 +27 +42 жарко 1018.2 991.9
нст 2 16 км ясно +25.6 +15.6 54 +29 +47 душно 1017.8 991.6
нст 2 16 км 5/5 1320 м +26.1 +14.4 48 +28 +38 жарко 1017.3 991.3 +15.0 +26.1
штиль 0 16 км 2/2 1500 м +26.7 +14.4 47 +29 +50 жарко 1017.0 990.9
ЮЗ 3 16 км 5/5 1800 м +27.2 +13.9 44 +29 +36 жарко 1016.5 990.3
нст 2 16 км ясно +27.2 +14.4 45 +29 +42 жарко 1015.9 989.9
ЮЗ 3 16 км 2/2 1800 м +27.2 +12.8 41 +29 +34 жарко 1015.7 989.6
нст 2 16 км ясно +26.7 +12.8 42 +28 +33 жарко 1015.7 989.6
Ю 4 16 км ясно +25.0 +14.4 52 +28 +29 жарко 1015.8 989.6 +25.0 +27.8
Ю 3 16 км ясно +23.3 +14.4 57 +27 +27 душно 1016.4 990.3
Ю 4 16 км ясно +22.2 +15.0 64 +26 +26 душно 1016.4 990.3
ЮВ 3 16 км ясно +21.7 +14.4 63 +25 +25 комфорт 1016.5 990.3
Ю 2 16 км ясно +21.1 +15.0 68 +24 +24 комфорт 1016.4 990.3
ЮВ 3 16 км ясно +18.9 +15.0 78 +20 +20 1016.5 990.3
ЮВ 3 16 км ясно +18.9 +15.0 78 +20 +20 1016.2 990.3 +18.9 +25.0
Местоположение метеостанции Washington County Regional Airport: широта 39.7058 долгота -77.7300 высота над уровнем моря 214 м.
В архиве по умолчанию представлена погода в Хейгерстауне за последние 1-2 суток. Обновление информации о фактической погоде в базе происходит ежечасно! Архивные данные за месяц целиком и за предыдущие месяцы Вы можете получить, выбрав интересующий диапазон дат из раскрывающегося списка и нажав кнопку "Ввод!".
Внимание! Архив погоды МЕТАР в базе сайта по станциям, не включенным в климатический монитор, хранится не более 60 дней. Нет смысла пытаться выбрать более раннюю дату.
*Определитесь, кто Вы:
Внимание! Время в таблицах - местное (без учета летнего времени). Для получения всемирного времени необходимо вычесть поправку, которая равна -5 ч.
Смотрите также архив погоды в соседних городах и на ближайших метеорологических станциях:
Партнеры нашего сайта:      
Пояснения к столбцам:
  • Ветер - указаны скорость ветра в м/с - средняя за 10 мин, порывы в срок и между сроками (в фигурных скобках) и направление, откуда дует ветер: С - северный,
  • СВ - северо-восточный, В - восточный, ЮВ - юго-восточный, Ю - южный, ЮЗ - юго-западный, З - западный, СЗ - северо-западный.
  • Видимость - горизонтальная дальность видимости в метрах или километрах. При видимости от 1 до 10 км при отсутствии осадков обычно наблюдается дымка, при ухудшении видимости до 1 км и менее - туман. В сухую погоду видимость может ухудшаться дымом, пылью или мглою.
  • Явления - указаны атмосферные явления, наблюдавшиеся в срок или в последний час перед сроком; фигурными скобками обозначены явления, наблюдавшиеся между сроками (за 1-3 часа до срока); квадратными скобками обозначены град или гололедные отложения с указанием их диаметра в мм.
  • Облачность - указаны через наклонную черту общая и нижняя облачность в баллах и высота нижней границы облаков в метрах; квадратными скобками обозначены формы облаков: Ci - перистые, Cs - перисто-слоистые, Cc - перисто-кучевые, Ac - высококучевые, As - высокослоистые, Sc - слоисто-кучевые, Ns - слоисто-дождевые, Cu - кучевые, Cb - кучево-дождевые. Подробнее классификацию облаков см. в Атласе облаков (PDF).
  • T - Температура воздуха - температура, измеренная на высоте 2 м над землей.
  • Td - Температура точки росы - температура, при понижении до которой содержащийся в воздухе водяной пар достигнет насыщения.
  • f - Относительная влажность воздуха - влажноcть воздуха, измеренная на высоте 2 м над землей.
  • Te - Эффективная температура - температура, которую ощущает одетый по сезону человек в тени. Характеристика душности погоды. При расчете учитывается влияние влажности воздуха и скорости ветра на теплоощущения человека.
  • Tes - Эффективная температура на солнце - температура, которую ощущает человек, с поправкой на солнечный нагрев. Характеристика знойности погоды. Зависит от высоты солнца над горизонтом, облачности и скорости ветра. Ночью, в пасмурную погоду, а также при ветре 12 м/с и более поправка равна нулю.
  • P - Атмосферное давление - приведенное к уровню моря атмосферное давление.
  • Po - Атмосферное давление - измеренное на уровне метеостанции атмосферное давление.
  • Tmin - Минимальная температура - минимум температуры воздуха на высоте 2 м над землей.
  • Tmax - Максимальная температура - максимум температуры воздуха на высоте 2 м над землей.
  • R - Количество осадков - Количество выпавших осадков за период времени, мм. При наведении курсора мыши на число - период времени, за который выпало указанное количество осадков.
  • R24 - Количество осадков - Количество выпавших осадков за 24 часа, мм.
  • S - Снежный покров - Высота снежного покрова, см. При наведении курсора мыши на число - состояние снежного покрова и степень покрытия местности в баллах.